| time (UTC) | temp C | wind direction | speed KPH | gust KPH | rain 1hr cm | rain 24hr cm | rain mn cm | humidity % | barometer mb |
| 20260503053004 | 11 | 350 | 4.8 | 0.0 | 0.00 | 0.00 | 0.00 | 62 | 1019.0 |
| 20260503051504 | 11 | 350 | 4.8 | 0.0 | 0.00 | 0.00 | 0.00 | 62 | 1019.0 |
| 20260503050005 | 11 | 350 | 4.8 | 0.0 | 0.00 | 0.00 | 0.00 | 62 | 1019.0 |
| 20260503044504 | 11 | 360 | 8.0 | 0.0 | 0.00 | 0.00 | 0.00 | 12 | 1019.0 |
| 20260503043004 | 11 | 360 | 8.0 | 0.0 | 0.00 | 0.00 | 0.00 | 12 | 1019.0 |
| 20260503041504 | 10 | 340 | 8.0 | 0.0 | 0.00 | 0.00 | 0.00 | 71 | 1019.0 |
| 20260503040005 | 10 | 340 | 9.7 | 0.0 | 0.00 | 0.00 | 0.00 | 71 | 1019.0 |
| 20260503034504 | 10 | 340 | 9.7 | 0.0 | 0.00 | 0.00 | 0.00 | 71 | 1019.0 |
| 20260503033004 | 10 | 340 | 9.7 | 0.0 | 0.00 | 0.00 | 0.00 | 71 | 1019.0 |
| 20260503023004 | 12 | 10 | 8.0 | 0.0 | 0.00 | 0.00 | 0.00 | 62 | 1019.0 |
| 20260503013005 | 12 | 360 | 8.0 | 0.0 | 0.00 | 0.00 | 0.00 | 62 | 1020.0 |
| 20260503004504 | 12 | 330 | 11.3 | 0.0 | 0.00 | 0.00 | 0.00 | 62 | 1020.0 |
| 20260503003004 | 12 | 330 | 11.3 | 0.0 | 0.00 | 0.00 | 0.00 | 62 | 1020.0 |
| 20260503001504 | 12 | 350 | 8.0 | 0.0 | 0.00 | 0.00 | 0.00 | 66 | 1020.0 |
| 20260503000004 | 12 | 350 | 8.0 | 0.0 | 0.00 | 0.00 | 0.00 | 66 | 1020.0 |
| 20260502230004 | 12 | 360 | 8.0 | 0.0 | 0.00 | 0.00 | 0.00 | 62 | 1021.0 |
| 20260502224503 | 12 | 350 | 8.0 | 0.0 | 0.00 | 0.00 | 0.00 | 62 | 1020.0 |
| 20260502221504 | 13 | 10 | 8.0 | 0.0 | 0.00 | 0.00 | 0.00 | 58 | 1020.0 |
| 20260502220006 | 13 | 10 | 8.0 | 0.0 | 0.00 | 0.00 | 0.00 | 58 | 1020.0 |
| 20260502214504 | 13 | 10 | 8.0 | 0.0 | 0.00 | 0.00 | 0.00 | 58 | 1020.0 |
| 20260502213005 | 13 | 10 | 8.0 | 0.0 | 0.00 | 0.00 | 0.00 | 58 | 1020.0 |
| 20260502211504 | 15 | 0 | 3.2 | 0.0 | 0.00 | 0.00 | 0.00 | 54 | 1021.0 |
| 20260502203004 | 16 | 250 | 3.2 | 0.0 | 0.00 | 0.00 | 0.00 | 51 | 1020.0 |
| 20260502201503 | 17 | 240 | 3.2 | 0.0 | 0.00 | 0.00 | 0.00 | 48 | 1020.0 |
| 20260502200004 | 17 | 240 | 3.2 | 0.0 | 0.00 | 0.00 | 0.00 | 48 | 1020.0 |
| 20260502194503 | 18 | 220 | 4.8 | 0.0 | 0.00 | 0.00 | 0.00 | 39 | 1020.0 |
| 20260502193004 | 18 | 220 | 4.8 | 0.0 | 0.00 | 0.00 | 0.00 | 39 | 1020.0 |
| 20260502184504 | 22 | 230 | 9.7 | 0.0 | 0.00 | 0.00 | 0.00 | 30 | 1020.0 |
| 20260502163004 | 23 | 0 | 9.7 | 0.0 | 0.00 | 0.00 | 0.00 | 25 | 1021.0 |
| 20260502161503 | 23 | 230 | 11.3 | 0.0 | 0.00 | 0.00 | 0.00 | 25 | 1021.0 |
| 20260502123004 | 22 | 230 | 14.5 | 0.0 | 0.00 | 0.00 | 0.00 | 27 | 1024.0 |
| 20260502121504 | 22 | 230 | 11.3 | 0.0 | 0.00 | 0.00 | 0.00 | 27 | 1024.0 |
| 20260502114504 | 22 | 0 | 9.7 | 0.0 | 0.00 | 0.00 | 0.00 | 25 | 1024.0 |
| 20260502111503 | 22 | 260 | 12.9 | 0.0 | 0.00 | 0.00 | 0.00 | 26 | 1025.0 |
| 20260502110004 | 22 | 260 | 12.9 | 0.0 | 0.00 | 0.00 | 0.00 | 26 | 1025.0 |
| 20260502104504 | 22 | 280 | 11.3 | 0.0 | 0.00 | 0.00 | 0.00 | 24 | 1025.0 |
| 20260502103004 | 22 | 280 | 11.3 | 0.0 | 0.00 | 0.00 | 0.00 | 24 | 1025.0 |
| 20260502101504 | 22 | 290 | 9.7 | 0.0 | 0.00 | 0.00 | 0.00 | 26 | 1025.0 |
| 20260502091504 | 20 | 280 | 9.7 | 0.0 | 0.00 | 0.00 | 0.00 | 34 | 1026.0 |
| 20260502071505 | 13 | 330 | 4.8 | 0.0 | 0.00 | 0.00 | 0.00 | 54 | 1026.0 |
| 20260502070004 | 13 | 330 | 4.8 | 0.0 | 0.00 | 0.00 | 0.00 | 54 | 1026.0 |
| 20260502064504 | 12 | 330 | 4.8 | 0.0 | 0.00 | 0.00 | 0.00 | 58 | 1026.0 |
| 20260502063004 | 12 | 330 | 4.8 | 0.0 | 0.00 | 0.00 | 0.00 | 58 | 1026.0 |
| 20260502061503 | 10 | 330 | 4.8 | 0.0 | 0.00 | 0.00 | 0.00 | 71 | 1026.0 |
| 20260502060004 | 10 | 330 | 4.8 | 0.0 | 0.00 | 0.00 | 0.00 | 71 | 1026.0 |